When you browse on this site, cookies collect data to enhance your experience and personalize the content and advertising you see.
Visit our Privacy Policy to learn more. By continuing to use the site, you agree to this use of cookies and data.

Hourly Weather Bruges

Today, 4 July, Saturday

Time Temperature Precipitation Wind Pressure Humidity
00:00 +15°C° 0 mm 8 mps 761 mmHg 73%
01:00 +15°C° 0.1 mm 8 mps 761 mmHg 74%
02:00 +16°C° 0.1 mm 8 mps 760 mmHg 76%
03:00 +16°C° 0.1 mm 8 mps 760 mmHg 77%
04:00 +16°C° 0.3 mm 9 mps 760 mmHg 81%
05:00 +15°C° 0.3 mm 9 mps 760 mmHg 84%
06:00 +15°C° 0.3 mm 9 mps 759 mmHg 87%
07:00 +16°C° 0 mm 9 mps 759 mmHg 86%
08:00 +16°C° 0 mm 9 mps 759 mmHg 85%
09:00 +16°C° 0 mm 10 mps 759 mmHg 84%
10:00 +17°C° 0 mm 9 mps 759 mmHg 83%
11:00 +17°C° 0 mm 9 mps 759 mmHg 82%
12:00 +18°C° 0 mm 9 mps 759 mmHg 82%
13:00 +18°C° 0 mm 9 mps 759 mmHg 83%
14:00 +18°C° 0 mm 9 mps 759 mmHg 84%
15:00 +20°C° 0 mm 8 mps 759 mmHg 85%
16:00 +18°C° 0.2 mm 8 mps 759 mmHg 87%
17:00 +18°C° 0.2 mm 8 mps 759 mmHg 90%
18:00 +18°C° 0.2 mm 8 mps 759 mmHg 92%
19:00 +18°C° 0 mm 8 mps 759 mmHg 91%
20:00 +17°C° 0 mm 8 mps 759 mmHg 91%
21:00 +17°C° 0 mm 8 mps 759 mmHg 90%
22:00 +17°C° 0 mm 8 mps 759 mmHg 91%
23:00 +17°C° 0 mm 8 mps 759 mmHg 91%

Tomorrow, 5 July, Sunday

Time Temperature Precipitation Wind Pressure Humidity
00:00 +17°C° 0 mm 8 mps 758 mmHg 91%
01:00 +17°C° 0 mm 9 mps 758 mmHg 90%
02:00 +17°C° 0 mm 9 mps 758 mmHg 88%
03:00 +17°C° 0 mm 9 mps 758 mmHg 86%
04:00 +17°C° 0 mm 9 mps 758 mmHg 85%
05:00 +17°C° 0 mm 9 mps 758 mmHg 84%
06:00 +17°C° 0 mm 10 mps 758 mmHg 83%
07:00 +18°C° 0 mm 10 mps 757 mmHg 81%
08:00 +18°C° 0 mm 11 mps 757 mmHg 80%
09:00 +18°C° 0 mm 11 mps 757 mmHg 78%
10:00 +18°C° 0 mm 11 mps 757 mmHg 79%
11:00 +18°C° 0 mm 11 mps 757 mmHg 81%
12:00 +18°C° 0 mm 10 mps 757 mmHg 82%
13:00 +19°C° 0 mm 11 mps 757 mmHg 80%
14:00 +19°C° 0 mm 11 mps 757 mmHg 77%
15:00 +21°C° 0 mm 11 mps 757 mmHg 74%
16:00 +21°C° 0 mm 11 mps 757 mmHg 73%
17:00 +19°C° 0 mm 11 mps 757 mmHg 71%
18:00 +19°C° 0 mm 10 mps 757 mmHg 69%
19:00 +18°C° 0 mm 10 mps 757 mmHg 70%
20:00 +17°C° 0 mm 9 mps 758 mmHg 71%
21:00 +15°C° 0 mm 8 mps 758 mmHg 72%
22:00 +15°C° 0 mm 8 mps 758 mmHg 70%
23:00 +13°C° 0 mm 8 mps 758 mmHg 68%

Day after tomorrow, 6 July, Monday

Time Temperature Precipitation Wind Pressure Humidity
00:00 +13°C° 0 mm 9 mps 758 mmHg 66%
01:00 +12°C° 0 mm 8 mps 758 mmHg 68%
02:00 +12°C° 0 mm 8 mps 758 mmHg 69%
03:00 +12°C° 0 mm 8 mps 758 mmHg 70%
04:00 +12°C° 0 mm 8 mps 758 mmHg 71%
05:00 +12°C° 0 mm 8 mps 759 mmHg 72%
06:00 +13°C° 0 mm 9 mps 759 mmHg 73%
07:00 +13°C° 0.1 mm 9 mps 759 mmHg 71%
08:00 +15°C° 0.1 mm 9 mps 760 mmHg 69%
09:00 +15°C° 0.1 mm 9 mps 760 mmHg 67%
10:00 +16°C° 0.1 mm 8 mps 760 mmHg 66%
11:00 +16°C° 0.1 mm 8 mps 761 mmHg 64%
12:00 +16°C° 0.1 mm 8 mps 761 mmHg 63%
13:00 +16°C° 0.1 mm 8 mps 761 mmHg 62%
14:00 +17°C° 0.1 mm 8 mps 762 mmHg 61%
15:00 +17°C° 0.1 mm 8 mps 762 mmHg 60%
16:00 +17°C° 0 mm 7 mps 763 mmHg 61%
17:00 +17°C° 0 mm 6 mps 763 mmHg 63%
18:00 +17°C° 0 mm 6 mps 763 mmHg 65%
19:00 +16°C° 0 mm 5 mps 764 mmHg 72%
20:00 +14°C° 0 mm 5 mps 764 mmHg 78%
21:00 +13°C° 0 mm 4 mps 765 mmHg 85%
22:00 +13°C° 0 mm 4 mps 765 mmHg 84%
23:00 +12°C° 0 mm 3 mps 765 mmHg 83%

7 July, Tuesday

Time Temperature Precipitation Wind Pressure Humidity
00:00 +12°C° 0 mm 3 mps 765 mmHg 83%
01:00 +12°C° 0 mm 2 mps 765 mmHg 82%
02:00 +12°C° 0 mm 2 mps 765 mmHg 82%
03:00 +12°C° 0 mm 1 mps 765 mmHg 82%
04:00 +13°C° 0 mm 1 mps 765 mmHg 80%
05:00 +14°C° 0 mm 2 mps 765 mmHg 79%
06:00 +14°C° 0 mm 2 mps 765 mmHg 78%
07:00 +14°C° 0.1 mm 3 mps 765 mmHg 75%
08:00 +15°C° 0.1 mm 4 mps 766 mmHg 72%
09:00 +16°C° 0.1 mm 5 mps 766 mmHg 70%
10:00 +17°C° 0.1 mm 5 mps 765 mmHg 67%
11:00 +17°C° 0.1 mm 5 mps 765 mmHg 64%
12:00 +17°C° 0.1 mm 5 mps 765 mmHg 62%
13:00 +17°C° 0 mm 5 mps 765 mmHg 61%
14:00 +17°C° 0 mm 5 mps 765 mmHg 60%
15:00 +17°C° 0 mm 5 mps 765 mmHg 58%
16:00 +17°C° 0 mm 4 mps 765 mmHg 60%
17:00 +17°C° 0 mm 3 mps 765 mmHg 61%
18:00 +17°C° 0 mm 2 mps 765 mmHg 62%
19:00 +15°C° 0 mm 2 mps 766 mmHg 67%
20:00 +14°C° 0 mm 1 mps 766 mmHg 72%
21:00 +13°C° 0 mm 1 mps 766 mmHg 76%
22:00 +12°C° 0 mm 2 mps 766 mmHg 77%
23:00 +12°C° 0 mm 2 mps 766 mmHg 78%

8 July, Wednesday

Time Temperature Precipitation Wind Pressure Humidity
00:00 +11°C° 0 mm 3 mps 766 mmHg 79%
01:00 +11°C° 0 mm 3 mps 765 mmHg 81%
02:00 +11°C° 0 mm 3 mps 765 mmHg 83%
03:00 +11°C° 0 mm 3 mps 765 mmHg 84%
04:00 +12°C° 0 mm 4 mps 765 mmHg 83%
05:00 +13°C° 0 mm 4 mps 765 mmHg 82%
06:00 +14°C° 0 mm 4 mps 765 mmHg 81%
07:00 +15°C° 0 mm 5 mps 765 mmHg 75%
08:00 +17°C° 0 mm 5 mps 765 mmHg 70%
09:00 +20°C° 0 mm 6 mps 765 mmHg 64%
10:00 +21°C° 0 mm 6 mps 764 mmHg 62%
11:00 +22°C° 0 mm 6 mps 764 mmHg 59%
12:00 +22°C° 0 mm 7 mps 764 mmHg 57%
13:00 +22°C° 0 mm 7 mps 763 mmHg 56%
14:00 +23°C° 0 mm 7 mps 763 mmHg 56%
15:00 +23°C° 0 mm 7 mps 762 mmHg 55%
16:00 +22°C° 0 mm 7 mps 762 mmHg 59%
17:00 +21°C° 0 mm 7 mps 762 mmHg 62%
18:00 +20°C° 0 mm 7 mps 762 mmHg 65%
19:00 +18°C° 0 mm 7 mps 762 mmHg 66%
20:00 +17°C° 0 mm 7 mps 762 mmHg 67%
21:00 +16°C° 0 mm 7 mps 762 mmHg 69%
22:00 +16°C° 0 mm 7 mps 762 mmHg 74%
23:00 +15°C° 0 mm 7 mps 762 mmHg 80%

9 July, Thursday

Time Temperature Precipitation Wind Pressure Humidity
00:00 +15°C° 0 mm 7 mps 762 mmHg 86%
01:00 +15°C° 0 mm 7 mps 762 mmHg 87%
02:00 +16°C° 0 mm 6 mps 762 mmHg 88%
03:00 +16°C° 0 mm 6 mps 762 mmHg 88%
04:00 +15°C° 0.1 mm 6 mps 762 mmHg 86%
05:00 +15°C° 0.1 mm 5 mps 763 mmHg 83%
06:00 +14°C° 0.1 mm 5 mps 763 mmHg 81%
07:00 +15°C° 0 mm 5 mps 763 mmHg 77%
08:00 +15°C° 0 mm 5 mps 763 mmHg 72%
09:00 +16°C° 0 mm 5 mps 764 mmHg 68%
10:00 +17°C° 0 mm 4 mps 764 mmHg 64%
11:00 +18°C° 0 mm 4 mps 764 mmHg 61%
12:00 +19°C° 0 mm 4 mps 764 mmHg 57%
13:00 +19°C° 0 mm 4 mps 764 mmHg 57%
14:00 +19°C° 0 mm 3 mps 764 mmHg 57%
15:00 +19°C° 0 mm 3 mps 764 mmHg 57%
16:00 +18°C° 0 mm 3 mps 764 mmHg 60%
17:00 +17°C° 0 mm 3 mps 764 mmHg 62%
18:00 +17°C° 0 mm 2 mps 764 mmHg 65%
19:00 +16°C° 0 mm 2 mps 764 mmHg 69%
20:00 +15°C° 0 mm 2 mps 765 mmHg 73%
21:00 +14°C° 0 mm 2 mps 765 mmHg 77%
22:00 +14°C° 0.1 mm 2 mps 765 mmHg 77%
23:00 +14°C° 0.1 mm 2 mps 764 mmHg 78%
Show more